www.pogodaiklimat.ru

ПОГОДА в Хендерсоне, KY

  • Прогноз погоды в Хендерсоне
  • Монитор погоды в Хендерсоне
  • Климат в Хендерсоне

АРХИВ ПОГОДЫ в Хендерсоне

Время (UTC), дата Ветер
(напр.,м/с)
 
Видим.   Явления Облачность Т
(С)
Тd
(С)
f
(%)
Тe
(С)
Тes
(С)
Комфортность

P
(гПа)

Po
(гПа)
Тmin
(С)
Tmax
(С)
R
(мм)
SD
(см)
14:22 18.06 Ю  16 км  слабый дождь  8/8 300 м  +23.0  +22.0  94  +31  +34  очень
душно 
  999.8         
14:32 18.06 Ю  16 км  слабый дождь  5/5 300 м  +23.0  +22.0  94  +31  +37  очень
душно 
  999.8         
14:52 18.06 ЮВ  16 км    8/8 240 м
[средняя] 
+24.0  +22.0  89  +31  +34  очень
душно 
  999.4         
14:56 18.06   16 км    8/8 240 м  +24.4  +22.2  88  +32  +35  очень
душно 
1013.3  999.4         
15:05 18.06 ЮВ  13 км  слабый дождь  8/8 240 м  +24.0  +22.0  89  +31  +35  очень
душно 
  999.4         
15:27 18.06   16 км  слабый дождь  10/10 300 м  +23.0  +22.0  94  +31  +31  очень
душно 
  999.4         
15:54 18.06 СЗ  16 км  слабый дождь  8/8 360 м  +23.0  +22.0  94  +31  +34  очень
душно 
  999.4         
15:56 18.06 СЗ  14 км  дождь  8/8 360 м  +23.3  +22.2  94  +32  +35  очень
душно 
1013.1  999.4         
16:06 18.06 ЮЗ  13 км  слабый дождь  5/5 360 м  +23.0  +22.0  94  +31  +40  очень
душно 
  999.4         
16:31 18.06 Ю  16 км  гроза со слабым дождем  5/5 450 м  +23.0  +22.0  94  +31  +39  очень
душно 
  999.1         
16:46 18.06 ЮВ  16 км    2/2 780 м  +23.0  +22.0  94  +31  +49  очень
душно 
  999.1         
16:56 18.06   16 км    2/0 3300 м
[средняя] 
+23.9  +22.2  90  +31  +54  опасность
солнечного
удара 
1012.6  998.8  +21.7  +24.4  5.1   
17:56 18.06 ЮЗ  16 км    ясно  +26.1  +22.2  79  +34  +56  опасность
солнечного
удара 
1011.7  998.1         
18:56 18.06 ЮЗ  16 км    ясно  +27.8  +21.7  69  +36  +51  опасность
солнечного
удара 
1011.1  997.4         
19:56 18.06 ЮЗ  16 км    8/8 900 м  +27.2  +22.2  74  +35  +38  очень
душно 
1010.5  996.8         
20:56 18.06 ЮЗ  16 км    8/0 2700 м
[средняя] 
+27.2  +21.7  72  +35  +40  очень
душно 
1010.1  996.4         
21:56 18.06   16 км    ясно  +27.2  +21.1  69  +34  +44  очень
душно 
1009.5  995.8         
22:56 18.06 Ю  16 км    ясно  +26.1  +22.2  79  +34  +38  очень
душно 
1009.7  996.1  +23.9  +28.3     
23:56 18.06   16 км    2/0 3600 м
[средняя] 
+25.6  +22.2  82  +33  +35  очень
душно 
1009.6  995.8         
00:56 19.06   13 км    2/0 3000 м
[средняя] 
+24.4  +22.8  91  +32  +32  очень
душно 
1009.6  995.8         
01:56 19.06     16 км    ясно  +23.3  +22.2  94  +32  +32  очень
душно 
1010.2  996.4         
02:56 19.06 Ю  14 км    ясно  +22.8  +21.7  94  +31  +31  очень
душно 
1010.3  996.8         
03:56 19.06   16 км    2/0 2250 м
[средняя] 
+22.8  +21.1  90  +30  +30  очень
душно 
1010.4  996.8         
04:56 19.06   16 км    5/0 3300 м
[средняя] 
+22.2  +21.7  97  +29  +29  очень
душно 
1009.8  996.1  +22.2  +26.1     
05:56 19.06   16 км    10/0 3300 м
[средняя] 
+22.2  +21.7  97  +29  +29  очень
душно 
1008.9  995.4         
06:56 19.06 ЮЗ  16 км    ясно  +21.7  +20.6  93  +27  +27  душно  1008.5  994.8         
07:56 19.06   16 км    ясно  +21.1  +20.6  97  +26  +26  душно  1008.7  995.1         
08:56 19.06   16 км    ясно  +21.1  +20.6  97  +26  +26  душно  1008.6  995.1         
09:56 19.06     11 км    ясно  +21.1  +20.6  97  +26  +26  душно  1008.2  994.4         
10:56 19.06 ЮВ  14 км    ясно  +22.2  +21.7  97  +29  +29  очень
душно 
1007.8  994.1  +20.6  +22.8     
11:56 19.06 ЮЗ  16 км    2/0 3300 м
[средняя] 
+23.9  +21.7  88  +31  +32  очень
душно 
1008.7  995.1         
12:56 19.06 Ю  16 км    ясно  +25.0  +21.7  82  +32  +36  очень
душно 
1008.6  995.1         
13:56 19.06 Ю  16 км    ясно  +26.7  +21.7  74  +34  +41  очень
душно 
1008.4  994.8         
14:56 19.06 ЮЗ  16 км    2/2 810 м  +27.8  +21.7  69  +36  +39  очень
душно 
1007.7  994.1         
15:38 19.06 Ю  16 км    8/8 870 м  +28.0  +22.0  70  +36  +38  очень
душно 
  993.4         
15:51 19.06 Ю  4
{7} 
16 км    8/8 870 м
[средняя] 
+28.0  +23.0  74  +37  +39  очень
душно 
  993.4         
15:56 19.06 Ю  16 км    8/8 870 м
[средняя] 
+28.3  +22.8  72  +38  +39  очень
душно 
1006.8  993.1         
16:56 19.06 ЮЗ  16 км    5/5 1140 м  +28.3  +22.2  70  +37  +44  очень
душно 
1005.8  992.4  +22.2  +28.3     
17:56 19.06 ЮЗ  16 км    8/8 1170 м  +28.3  +21.7  67  +36  +38  очень
душно 
1005.5  992.1         
18:20 19.06 ЮЗ  14
{18} 
4 км  гроза с сильным дождем  8/8 900 м  +24.0  +21.0  83  +30  +30  очень
душно 
           
18:35 19.06 ЮЗ  16 км  гроза, слабый дождь  8/8 750 м
[средняя] 
+23.0  +21.0  89  +31  +33  очень
душно 
           
18:56 19.06 ЮЗ  16 км  слабый дождь  2/2 1080 м  +23.3  +21.1  87  +31  +43  очень
душно 
1005.5  991.8         
19:56 19.06 ЮЗ  16 км    ясно  +23.9  +21.7  88  +31  +43  очень
душно 
1005.0  991.4      6.9   
20:34 19.06   14 км  гроза со слабым дождем  ясно  +23.0  +22.0  94  +31  +47  очень
душно 
  991.1         
20:56 19.06 З  16 км  гроза с дождем  8/8 1050 м  +23.3  +22.2  94  +32  +34  очень
душно 
1005.5  991.8         
21:00 19.06 З  14 км  гроза, дождь  10/8 1050 м
[средняя] 
+23.0  +22.0  94  +31  +31  очень
душно 
  991.8         
21:32 19.06 ЮЗ  16 км  слабый дождь  10/10 270 м  +22.0  +21.0  94  +28  +28  душно    991.4         
21:56 19.06 ЮЗ  16 км  слабый дождь  10/10 270 м  +21.7  +20.6  93  +27  +27  душно  1004.9  991.1         

 

Местоположение метеостанции Henderson City-County Airport: широта 37.8167 долгота -87.6833 высота над уровнем моря 117 м.

В архиве по умолчанию представлена погода в Хендерсоне за последние 1-2 суток. Обновление информации о фактической погоде в базе происходит ежечасно! Архивные данные за месяц целиком и за предыдущие месяцы Вы можете получить, выбрав интересующий диапазон дат из раскрывающегося списка и нажав кнопку "Ввод!".

Внимание! Архив погоды МЕТАР в базе сайта хранится не более 60 дней. Нет смысла пытаться выбрать более раннюю дату.

Внимание! Время в таблицах - всемирное. Для получения местного времени необходимо прибавить поправку, которая в Хендерсоне равна -6 ч.

Ветер - указаны скорость ветра в м/с и направление, откуда дует ветер: С - северный, СВ - северо-восточный, В - восточный, ЮВ - юго-восточный, Ю - южный, ЮЗ - юго-западный, З - западный, СЗ - северо-западный.
Видимость - горизонтальная дальность видимости в метрах или километрах. При видимости от 1 до 10 км при отсутствии осадков обычно наблюдается дымка, при ухудшении видимости до 1 км и менее - туман. В сухую погоду видимость может ухудшаться дымом, пылью или мглою.
Атмосферные явления - указаны явления, наблюдавшиеся в указанный момент времени.
Облачность - указаны через наклонную черту верхняя и нижняя облачность в баллах и высота нижней границы облаков в метрах. Внимание: облачность, как и прочие метеорологические величины в США измеряются автоматическими метеостанциями. Указанные значения в баллах носят условный характер и показывают процент времени, в течение которого, в среднем, лазерный луч высотомера отражался от облаков обратно.
T - Температура воздуха - температура, измеренная на высоте 2 м над землей.
Td - Температура точки росы - температура, при понижении до которой содержащийся в воздухе водяной пар достигнет насыщения.
f - Относительная влажность воздуха - влажноcть воздуха, измеренная на высоте 2 м над землей.
Te - Эффективная температура - температура, которую ощущает одетый по сезону человек в тени. Характеристика душности погоды. При расчете учитывается влияние влажности воздуха и скорости ветра на теплоощущения человека.
Tes - Эффективная температура на солнце - температура, которую ощущает человек, с поправкой на солнечный нагрев. Характеристика знойности погоды. Зависит от высоты солнца над горизонтом, облачности и скорости ветра. Ночью, в пасмурную погоду, а также при ветре 12 м/с и более поправка равна нулю.
P - Атмосферное давление - приведенное к уровню моря атмосферное давление.
Po - Атмосферное давление - измеренное на уровне метеостанции атмосферное давление.
Tmin - Минимальная температура - минимум температуры воздуха на высоте 2 м над землей.
Tmax - Максимальная температура - максимум температуры воздуха на высоте 2 м над землей.
R - Количество осадков - Количество выпавших осадков за 3 или 6 часов, мм.
SD - Снежный покров - Высота снежного покрова, см.